Terminal Aerodrome Forecast
Issued by NWS Columbia, SC

Home | Current Version | Previous Version | Text Only | Print | Product List | Glossary On
Versions: 1 2 3 4 5 6 7 8 9 10 11 12 13 14 15 16 17 18 19 20 21 22 23 24 25 26 27 28 29 30 31
000
FTUS42 KCAE 021044 AAC
TAFCAE
TAF AMD
KCAE 021044Z 0211/0306 VRB04KT 4SM BR SCT006
      TEMPO 0211/0213 2SM BR BKN006
     FM021400 10006KT P6SM SCT060=

USA.gov is the U.S. government's official web portal to all federal, state and local government web resources and services.